Simultaneous Nadir Overpasses (SNOs) Predictions

Prediction of SNOs between METOP-A and NOAA-19 Satellite Orbit:

Table of predicted SNOs for the next 14.0 days since TLE Epoch: 3/7/2016
Index Date (METOP-A) Time (METOP-A) Lat,Lon (METOP-A) SZA (METOP-A ) Date (NOAA-19) Time (NOAA-19) Lat,Lon (NOAA-19) SZA (NOAA-19 ) Distance(km) Time Diff (sec)
1 03/16/2016 19:29:35 -76.01, 67.59 102.73 03/16/2016 19:28:22 -76.00, 66.64 102.73 25.71 73
2 03/16/2016 20:20:18 75.85,-125.61 77.11 03/16/2016 20:19:24 75.85,-125.62 77.11 0.51 54
3 03/16/2016 21:11:00 -75.86, 41.74 102.90 03/16/2016 21:10:21 -75.85, 41.64 102.90 2.70 39
4 03/16/2016 22:01:40 75.83,-151.01 77.06 03/16/2016 22:01:26 75.85,-151.10 77.08 2.86 14
5 03/16/2016 22:52:23 -75.79, 16.19 102.99 03/16/2016 22:52:22 -75.80, 16.32 102.99 3.56 1
6 03/16/2016 23:43:02 75.82,-176.41 77.02 03/16/2016 23:43:27 75.79,-176.42 76.99 2.55 25
7 03/17/2016 00:33:45 -75.78, -9.21 103.04 03/17/2016 00:34:24 -75.79, -9.16 103.02 2.14 39
8 03/17/2016 01:24:24 75.80, 158.20 76.97 03/17/2016 01:25:29 75.78, 158.10 76.96 3.10 65
9 03/17/2016 02:15:10 -75.62, -35.05 103.22 03/17/2016 02:16:23 -75.65, -34.18 103.20 24.20 73




NCC Satellite Simultaneous Nadir Overpasses (SNOs) Prediction Service
